DW2363 Weather Reports


Display with metric or nautical units.
time (UTC)temp
F
wind
direction
speed
MPH
gust
MPH
rain 1hr
in
rain 24hr
in
rain mn
in
humidity
%
barometer
mb
20260503200502 55 200 8.0 14.0 0.00 0.00 0.00 84 1013.4
20260503200002 55 184 7.0 14.0 0.00 0.00 0.00 82 1013.2
20260503195501 55 192 7.0 14.0 0.00 0.00 0.00 85 1013.2
20260503195001 55 182 8.0 13.0 0.00 0.00 0.00 85 1013.2
20260503194500 54 151 8.0 15.0 0.00 0.00 0.00 87 1013.4
20260503194000 54 140 8.0 16.0 0.00 0.00 0.00 85 1013.5
20260503193500 54 176 8.0 16.0 0.00 0.00 0.00 86 1013.4
20260503193000 54 169 8.0 14.0 0.00 0.00 0.00 86 1013.4
20260503192459 54 187 8.0 13.0 0.00 0.00 0.00 87 1013.4
20260503192000 53 190 9.0 15.0 0.00 0.00 0.00 88 1013.4
20260503191500 54 151 8.0 15.0 0.00 0.00 0.00 90 1013.4
20260503190959 54 165 8.0 17.0 0.00 0.00 0.00 92 1013.4
20260503190500 53 161 8.0 17.0 0.00 0.00 0.00 94 1013.5
20260503185957 53 184 8.0 16.0 0.00 0.00 0.00 95 1013.6
20260503185457 52 195 8.0 16.0 0.00 0.00 0.00 96 1013.6
20260503185001 51 180 9.0 17.0 0.00 0.00 0.00 96 1013.6
20260503184957 51 152 9.0 16.0 0.00 0.00 0.00 96 1013.6
20260503184607 51 173 8.0 17.0 0.00 0.00 0.00 97 1013.6
20260503183458 51 155 8.0 14.0 0.00 0.00 0.00 97 1013.6
20260503182958 51 178 7.0 14.0 0.00 0.00 0.00 97 1013.7
20260503182458 51 162 7.0 14.0 0.00 0.00 0.00 97 1013.7
20260503181957 51 155 7.0 14.0 0.00 0.00 0.00 98 1013.8
20260503181458 51 168 6.0 14.0 0.00 0.00 0.00 98 1013.7
20260503180958 50 136 7.0 13.0 0.00 0.00 0.00 98 1013.7
20260503180458 50 98 7.0 14.0 0.00 0.00 0.00 98 1013.7
20260503175957 50 162 6.0 14.0 0.00 0.00 0.00 98 1013.7
20260503175458 49 175 6.0 10.0 0.00 0.00 0.00 98 1013.8
20260503175002 49 179 5.0 10.0 0.00 0.00 0.00 98 1013.8
20260503174958 49 188 6.0 10.0 0.00 0.00 0.00 98 1013.9
20260503173958 49 171 6.0 10.0 0.00 0.00 0.00 98 1013.9
20260503173458 49 171 7.0 10.0 0.00 0.00 0.00 98 1014.0
20260503172957 49 192 7.0 10.0 0.00 0.00 0.00 98 1013.9
20260503172457 49 189 8.0 11.0 0.00 0.00 0.00 98 1013.9
20260503171957 49 184 9.0 11.0 0.00 0.00 0.00 98 1013.9
20260503171458 49 188 9.0 12.0 0.00 0.00 0.00 98 1013.8
20260503170957 48 197 9.0 12.0 0.00 0.00 0.00 98 1013.7
20260503170457 49 192 8.0 11.0 0.00 0.00 0.00 98 1013.6
20260503150455 49 165 9.0 13.0 0.00 0.00 0.00 98 1012.7
20260503150449 49 171 9.0 11.0 0.00 0.00 0.00 98 1012.7
20260503130448 49 103 5.0 10.0 0.00 0.00 0.00 97 1011.6
20260503130444 49 98 6.0 10.0 0.00 0.00 0.00 97 1011.6
20260503110443 49 107 5.0 9.0 0.00 0.00 0.00 97 1012.0
20260503090432 50 153 2.0 10.0 0.00 0.00 0.00 96 1012.2
20260503081431 51 189 6.0 10.0 0.00 0.00 0.00 96 1012.3
20260503080928 51 188 6.0 10.0 0.00 0.00 0.00 95 1012.3
20260503080428 51 180 7.0 10.0 0.00 0.00 0.00 96 1012.3
20260503072423 52 204 6.0 8.0 0.00 0.00 0.00 93 1012.3
20260503071923 53 209 4.0 7.0 0.00 0.00 0.00 92 1012.3
20260503071424 54 211 2.0 8.0 0.00 0.00 0.00 91 1012.3
20260503070921 56 13 2.0 8.0 0.00 0.00 0.00 92 1012.2
20260503070422 56 20 5.0 8.0 0.00 0.00 0.00 91 1012.1
20260503054421 62 5 1.0 3.0 0.00 0.00 0.00 77 1012.2
20260503053921 62 22 0.0 2.0 0.00 0.00 0.00 76 1012.3
20260503053422 62 115 0.0 1.0 0.00 0.00 0.00 71 1012.3
20260503052922 62 125 0.0 1.0 0.00 0.00 0.00 70 1012.5
20260503052421 62 15 0.0 2.0 0.00 0.00 0.00 70 1012.5
20260503051921 63 5 1.0 2.0 0.00 0.00 0.00 71 1012.4
20260503051424 65 58 0.0 2.0 0.00 0.00 0.00 61 1012.4
20260503051420 64 30 0.0 2.0 0.00 0.00 0.00 68 1012.3
20260503050419 65 89 0.0 2.0 0.00 0.00 0.00 52 1012.4
20260503045919 65 123 0.0 2.0 0.00 0.00 0.00 45 1012.3
20260503045419 65 123 1.0 2.0 0.00 0.00 0.00 42 1012.3
20260503044924 65 126 0.0 2.0 0.00 0.00 0.00 36 1012.3
20260503044919 65 86 0.0 2.0 0.00 0.00 0.00 39 1012.3
20260503043917 65 227 1.0 2.0 0.00 0.00 0.00 40 1012.2
20260503043422 65 226 2.0 3.0 0.00 0.00 0.00 44 1012.1
20260503043418 65 226 1.0 3.0 0.00 0.00 0.00 41 1012.2
20260503042417 65 226 2.0 4.0 0.00 0.00 0.00 42 1012.1
20260503041917 66 225 3.0 4.0 0.00 0.00 0.00 42 1012.0
20260503041415 66 224 3.0 5.0 0.00 0.00 0.00 41 1012.0
20260503040919 66 221 5.0 6.0 0.00 0.00 0.00 41 1011.7
20260503040915 66 223 4.0 5.0 0.00 0.00 0.00 41 1011.9
20260503035915 66 217 5.0 6.0 0.00 0.00 0.00 42 1011.7
20260503035419 66 219 2.0 5.0 0.00 0.00 0.00 40 1011.5
20260503035415 66 222 5.0 6.0 0.00 0.00 0.00 39 1011.5
20260503034913 66 224 4.0 6.0 0.00 0.00 0.00 42 1011.5
20260503033913 67 215 4.0 7.0 0.00 0.00 0.00 43 1011.5
20260503033415 67 226 5.0 7.0 0.00 0.00 0.00 34 1011.3
20260503033411 67 216 5.0 7.0 0.00 0.00 0.00 38 1011.4
20260503032411 67 227 6.0 9.0 0.00 0.00 0.00 34 1011.2
20260503031915 67 234 8.0 10.0 0.00 0.00 0.00 40 1011.1
20260503031911 67 236 7.0 9.0 0.00 0.00 0.00 38 1011.1
20260503030911 67 227 8.0 10.0 0.00 0.00 0.00 39 1011.0
20260503030411 66 232 9.0 11.0 0.00 0.00 0.00 44 1011.0
20260503025911 65 237 9.0 11.0 0.00 0.00 0.00 48 1010.9
20260503025412 66 231 10.0 12.0 0.00 0.00 0.00 53 1010.9
20260503024912 66 232 10.0 12.0 0.00 0.00 0.00 50 1010.9
20260503024409 65 223 10.0 12.0 0.00 0.00 0.00 59 1010.9
20260503023909 65 231 10.0 12.0 0.00 0.00 0.00 65 1010.8
20260503023415 66 221 8.0 11.0 0.00 0.00 0.00 64 1010.8
20260503023409 65 223 9.0 11.0 0.00 0.00 0.00 66 1010.8
20260503022415 65 223 8.0 10.0 0.00 0.00 0.00 67 1010.7
20260503022409 65 228 8.0 10.0 0.00 0.00 0.00 61 1010.8
20260503022020 66 220 8.0 10.0 0.00 0.00 0.00 71 1010.7
20260503022016 66 220 8.0 10.0 0.00 0.00 0.00 67 1010.8
20260503020409 65 223 7.0 10.0 0.00 0.00 0.00 74 1010.7
20260503015914 66 224 7.0 10.0 0.00 0.00 0.00 73 1010.8
20260503015908 65 227 7.0 10.0 0.00 0.00 0.00 74 1010.8
20260503014909 67 221 7.0 10.0 0.00 0.00 0.00 71 1010.8
20260503014409 68 212 6.0 9.0 0.00 0.00 0.00 68 1010.9
20260503013909 69 211 5.0 6.0 0.00 0.00 0.00 66 1010.9
20260503013409 69 217 4.0 6.0 0.00 0.00 0.00 64 1010.8
20260503012908 69 221 4.0 7.0 0.00 0.00 0.00 62 1010.8
20260503012409 69 224 5.0 9.0 0.00 0.00 0.00 62 1010.8
20260503011909 70 211 4.0 9.0 0.00 0.00 0.00 61 1010.8
20260503011407 71 201 5.0 9.0 0.00 0.00 0.00 55 1011.0
20260503010905 72 177 6.0 9.0 0.00 0.00 0.00 54 1010.8
20260503010404 73 205 6.0 9.0 0.00 0.00 0.00 44 1010.9
20260503005905 74 184 5.0 9.0 0.00 0.00 0.00 43 1011.0
20260503005405 74 190 5.0 9.0 0.00 0.00 0.00 44 1010.9
20260503004905 74 190 5.0 7.0 0.00 0.00 0.00 43 1010.8
20260503004408 76 196 2.0 4.0 0.00 0.00 0.00 43 1010.9
20260503004404 75 192 4.0 7.0 0.00 0.00 0.00 42 1011.0
20260503003408 76 202 0.0 4.0 0.00 0.00 0.00 49 1011.0
20260503003404 76 207 1.0 4.0 0.00 0.00 0.00 44 1011.1
20260503002402 76 153 1.0 4.0 0.00 0.00 0.00 50 1010.9
20260503001904 76 160 2.0 5.0 0.00 0.00 0.00 47 1011.0
20260503001900 76 151 2.0 5.0 0.00 0.00 0.00 51 1011.0
20260503001508 76 155 1.0 4.0 0.00 0.00 0.00 46 1011.1
20260503001007 76 131 1.0 4.0 0.00 0.00 0.00 50 1011.1
20260502235900 76 113 1.0 4.0 0.00 0.00 0.00 53 1011.0
20260502235400 76 42 1.0 3.0 0.00 0.00 0.00 51 1011.1
20260502234901 77 44 1.0 3.0 0.00 0.00 0.00 49 1011.1
20260502234404 77 43 1.0 4.0 0.00 0.00 0.00 45 1011.1
20260502234400 76 39 1.0 3.0 0.00 0.00 0.00 42 1011.1
20260502233401 77 19 1.0 4.0 0.00 0.00 0.00 42 1011.1
20260502232905 76 331 1.0 5.0 0.00 0.00 0.00 47 1011.2
20260502232900 77 28 1.0 4.0 0.00 0.00 0.00 42 1011.1
20260502231905 76 28 1.0 6.0 0.00 0.00 0.00 46 1011.3
20260502231901 76 349 1.0 6.0 0.00 0.00 0.00 44 1011.2
20260502231504 76 355 1.0 6.0 0.00 0.00 0.00 51 1011.2
20260502230359 76 0 1.0 6.0 0.00 0.00 0.00 48 1011.4
20260502225859 75 94 1.0 7.0 0.00 0.00 0.00 50 1011.4
20260502225358 75 311 2.0 7.0 0.00 0.00 0.00 55 1011.5
20260502224859 75 17 3.0 8.0 0.00 0.00 0.00 55 1011.4
20260502224358 75 332 3.0 8.0 0.00 0.00 0.00 54 1011.5
20260502223858 76 312 2.0 6.0 0.00 0.00 0.00 56 1011.6
20260502223357 76 265 2.0 4.0 0.00 0.00 0.00 57 1011.9
20260502222856 76 285 1.0 4.0 0.00 0.00 0.00 56 1012.1
20260502222400 76 316 1.0 5.0 0.00 0.00 0.00 57 1012.1
20260502222356 76 40 1.0 4.0 0.00 0.00 0.00 57 1012.0
20260502222003 76 29 1.0 5.0 0.00 0.00 0.00 57 1012.2
20260502220856 76 349 1.0 6.0 0.00 0.00 0.00 59 1012.2
20260502220401 76 26 2.0 7.0 0.00 0.00 0.00 60 1012.4
20260502220357 76 198 1.0 6.0 0.00 0.00 0.00 59 1012.3
20260502215856 76 321 1.0 7.0 0.00 0.00 0.00 61 1012.5
20260502214854 76 124 1.0 4.0 0.00 0.00 0.00 62 1012.5
20260502214354 75 33 1.0 7.0 0.00 0.00 0.00 61 1012.6
20260502213858 75 43 2.0 5.0 0.00 0.00 0.00 63 1012.7
20260502213854 75 35 2.0 7.0 0.00 0.00 0.00 61 1012.7
20260502212852 74 52 2.0 5.0 0.00 0.00 0.00 64 1012.8
20260502212352 74 100 2.0 5.0 0.00 0.00 0.00 65 1012.8
20260502211851 73 100 1.0 5.0 0.00 0.00 0.00 66 1012.9
20260502211351 72 177 1.0 3.0 0.00 0.00 0.00 69 1012.9
20260502210851 71 277 2.0 6.0 0.00 0.00 0.00 69 1013.0
20260502210351 71 264 2.0 6.0 0.00 0.00 0.00 69 1013.0
20260502205854 71 247 1.0 5.0 0.00 0.00 0.00 69 1013.1
20260502205848 71 209 1.0 4.0 0.00 0.00 0.00 69 1013.2
20260502204848 70 209 1.0 5.0 0.00 0.00 0.00 70 1013.2
20260502204348 71 209 1.0 5.0 0.00 0.00 0.00 68 1013.2
20260502203848 71 229 2.0 6.0 0.00 0.00 0.00 67 1013.2
20260502203354 73 162 3.0 9.0 0.00 0.00 0.00 65 1013.2
20260502203348 72 171 2.0 6.0 0.00 0.00 0.00 66 1013.1
20260502202348 73 220 4.0 9.0 0.00 0.00 0.00 65 1013.2
20260502201848 73 24 3.0 9.0 0.00 0.00 0.00 64 1013.2
20260502201353 71 5 4.0 8.0 0.00 0.00 0.00 67 1013.4
20260502201347 72 0 2.0 6.0 0.00 0.00 0.00 67 1013.2